Location: *
(30.4476°N, 114.3798°E)
Time: 01:09:47
(UTC+00:00)

Gbstr 26 Del rocket - Pass Details

Date: 09 April 2020
Orbit: 493 x 1263 km, 51.8° (Epoch: 31 May)

Event Time Altitude Azimuth Distance (km) Brightness Sun altitude
Exits shadow 20:16:56 41° 268° (W) 1,347 4.3 -22.2°
Maximum altitude 20:18:43 54° 316° (NW) 1,106 4.1 -21.9°
Drops below altitude 10° 20:24:09 10° 34° (NNE) 2,351 6.8 -20.8°
Sets 20:26:25 0° 39° (NE) 3,167 7.8 -20.4°
